Location: Mountain View
(37.3861°N, 122.0839°W)
Time: 01:37:40
(UTC-07:00)

ISS - Visible Passes

Search period start: 27 June 2017 00:00
Search period end: 07 July 2017 00:00
Orbit: 401 x 408 km, 51.6° (Epoch: 27 June)

Date Brightness Start Highest point End Pass type
(mag) Time Alt. Az. Time Alt. Az. Time Alt. Az.
03 Jul -2.0 05:04:54 10° S 05:07:37 25° SE 05:10:21 10° ENE visible
04 Jul -1.3 04:14:15 10° SSE 04:15:32 12° SE 04:16:57 10° ESE visible
05 Jul -3.7 04:56:48 15° SW 04:59:22 69° SE 05:02:37 10° NE visible
06 Jul -2.7 04:06:36 29° SSE 04:07:09 31° SE 04:10:06 10° ENE visible
